Location: Bryzozowice
(50.3667°N, 18.9667°E)
Time: 20:51:08
(UTC+00:00)

ISS - Pass Details

Date: 24 January 2020
Orbit: 416 x 423 km, 51.6° (Epoch: 17 February)

Event Time Altitude Azimuth Distance (km) Brightness Sun altitude
Rises 17:21:32 0° 240° (WSW) 2,372 1.3 -18.7°
Reaches altitude 10° 17:23:39 10° 236° (SW) 1,508 0.0 -19.0°
Maximum altitude 17:26:59 58° 157° (SSE) 496 -3.6 -19.5°
Enters shadow 17:27:00 58° 155° (SSE) 496 -3.6 -19.5°
